Llagostera





Hora UTC 19:45
Temperatura 5.6 ºC
Humitat 92.0 %
Pressió 1022.7 hPa
Pluja 0.0 mm
Velocitat vent 0.0 km/h
Direcció vent

Dades diàries 2020-01-29



Hora UTC (hivern +1h; estiu +2h)
Temperatura (ºC) Humitat (%) Pressió (hPa) Velocitat vent (km/h) Precipitació (mm)
Hora UTC Aire Humitat Pressió Vel. Dir. Vel. Max Dir. Intent. màx 5 min.
00:05 1.3 94.0 1020.4 0.0 0.0 0.0
00:10 1.2 94.0 1020.4 0.0 0.0 0.0
00:15 1.2 94.0 1020.5 0.0 0.0 0.0
00:20 1.2 94.0 1020.4 0.0 3.2 0.0
00:25 1.2 94.0 1020.3 1.6 3.2 0.0
00:30 1.2 94.0 1020.4 1.6 6.4 0.0
00:35 1.2 94.0 1020.3 3.2 6.4 0.0
00:40 1.2 94.0 1020.4 1.6 6.4 0.0
00:45 1.2 94.0 1020.3 0.0 6.4 0.0
00:50 1.2 94.0 1020.2 0.0 6.4 0.0
00:55 1.2 94.0 1020.3 0.0 6.4 0.0
01:00 1.1 94.0 1020.3 0.0 6.4 0.0
01:05 1.2 94.0 1020.3 0.0 6.4 0.0
01:10 1.1 94.0 1020.2 0.0 6.4 0.0
01:15 1.2 94.0 1020.2 0.0 6.4 0.0
01:20 1.1 94.0 1020.2 0.0 6.4 0.0
01:25 1.1 94.0 1020.1 0.0 6.4 0.0
01:30 0.8 94.0 1020.2 0.0 6.4 0.0
01:35 0.8 94.0 1020.3 0.0 6.4 0.0
01:40 0.8 94.0 1020.4 0.0 6.4 0.0
01:45 0.8 94.0 1020.5 1.6 6.4 0.0
01:50 0.8 94.0 1020.3 1.6 6.4 0.0
01:55 0.7 94.0 1020.3 0.0 6.4 0.0
02:00 0.7 94.0 1020.3 0.0 6.4 0.0
02:05 0.7 94.0 1020.4 0.0 6.4 0.0
02:10 0.7 94.0 1020.4 0.0 6.4 0.0
02:15 0.6 94.0 1020.3 0.0 6.4 0.0
02:20 0.6 94.0 1020.2 0.0 6.4 0.0
02:25 0.5 94.0 1020.3 0.0 6.4 0.0
02:30 0.4 94.0 1020.2 0.0 6.4 0.0
02:35 0.4 94.0 1020.2 0.0 6.4 0.0
02:40 0.4 95.0 1020.3 0.0 6.4 0.0
02:45 0.4 95.0 1020.3 0.0 6.4 0.0
02:50 0.4 94.0 1020.3 0.0 6.4 0.0
02:55 0.4 95.0 1020.2 0.0 6.4 0.0
03:00 0.4 95.0 1020.3 0.0 6.4 0.0
03:05 0.4 95.0 1020.2 0.0 6.4 0.0
03:10 0.4 95.0 1020.3 0.0 6.4 0.0
03:15 0.3 94.0 1020.3 0.0 6.4 0.0
03:20 0.3 95.0 1020.3 0.0 6.4 0.0
03:25 0.3 95.0 1020.4 0.0 6.4 0.0
03:30 0.3 94.0 1020.3 0.0 6.4 0.0
03:35 0.2 94.0 1020.3 0.0 6.4 0.0
03:40 0.1 94.0 1020.4 0.0 6.4 0.0
03:45 0.1 94.0 1020.4 0.0 6.4 0.0
03:50 0.1 94.0 1020.4 0.0 6.4 0.0
03:55 0.1 95.0 1020.4 0.0 6.4 0.0
04:00 0.1 95.0 1020.4 0.0 6.4 0.0
04:05 0.1 95.0 1020.5 0.0 6.4 0.0
04:10 0.1 95.0 1020.5 0.0 6.4 0.0
04:15 0.1 95.0 1020.6 0.0 6.4 0.0
04:20 0.1 95.0 1020.6 0.0 6.4 0.0
04:25 0.2 95.0 1020.6 0.0 6.4 0.0
04:30 0.2 95.0 1020.7 0.0 6.4 0.0
04:35 0.2 95.0 1020.8 0.0 6.4 0.0
04:40 0.3 95.0 1020.9 0.0 6.4 0.0
04:45 0.3 95.0 1020.7 0.0 6.4 0.0
04:50 0.3 95.0 1020.7 0.0 6.4 0.0
04:55 0.2 95.0 1020.6 0.0 6.4 0.0
05:00 0.2 95.0 1020.7 0.0 6.4 0.0
05:05 0.2 95.0 1020.7 0.0 6.4 0.0
05:10 0.1 94.0 1020.5 0.0 6.4 0.0
05:15 0.1 95.0 1020.6 0.0 6.4 0.0
05:20 0.0 95.0 1020.7 0.0 6.4 0.0
05:25 -0.1 95.0 1020.8 0.0 6.4 0.0
05:30 -0.1 95.0 1021.0 0.0 6.4 0.0
05:35 -0.1 95.0 1021.3 0.0 6.4 0.0
05:40 -0.1 95.0 1021.3 0.0 6.4 0.0
05:45 0.0 95.0 1020.9 0.0 6.4 0.0
05:50 -0.1 95.0 1020.9 0.0 6.4 0.0
05:55 -0.1 95.0 1021.4 0.0 6.4 0.0
06:00 -0.1 95.0 1021.5 0.0 6.4 0.0
06:05 -0.1 95.0 1021.5 0.0 6.4 0.0
06:10 -0.1 95.0 1021.2 0.0 6.4 0.0
06:15 -0.1 95.0 1021.4 0.0 6.4 0.0
06:20 -0.1 95.0 1021.4 0.0 6.4 0.0
06:25 -0.1 95.0 1021.3 0.0 6.4 0.0
06:30 -0.2 95.0 1021.2 0.0 6.4 0.0
06:35 -0.2 95.0 1021.3 3.2 8.0 0.0
06:40 -0.1 95.0 1021.6 3.2 8.0 0.0
06:45 0.0 95.0 1021.8 4.8 11.3 0.0
06:50 -0.1 95.0 1021.7 4.8 11.3 0.0
06:55 -0.1 95.0 1021.7 1.6 11.3 0.0
07:00 0.1 95.0 1021.6 0.0 11.3 0.0
07:05 0.1 95.0 1021.5 1.6 11.3 0.0
07:10 0.1 95.0 1021.6 3.2 11.3 0.0
07:15 0.1 95.0 1021.8 1.6 11.3 0.0
07:20 0.1 95.0 1021.7 0.0 11.3 0.0
07:25 0.1 95.0 1021.8 0.0 11.3 0.0
07:30 0.2 95.0 1021.9 0.0 11.3 0.0
07:35 0.3 95.0 1022.0 0.0 11.3 0.0
07:40 0.4 95.0 1022.0 0.0 11.3 0.0
07:45 0.4 95.0 1022.1 0.0 11.3 0.0
07:50 0.4 95.0 1022.2 0.0 11.3 0.0
07:55 0.6 95.0 1022.3 0.0 11.3 0.0
08:00 0.7 96.0 1022.4 0.0 11.3 0.0
08:05 1.1 96.0 1022.3 0.0 11.3 0.0
08:10 1.3 96.0 1022.2 0.0 11.3 0.0
08:15 1.7 96.0 1022.3 1.6 11.3 0.0
08:20 2.1 96.0 1022.4 4.8 11.3 0.0
08:25 2.6 96.0 1022.4 3.2 11.3 0.0
08:30 2.8 96.0 1022.4 1.6 11.3 0.0
08:35 2.7 96.0 1022.5 0.0 11.3 0.0
08:40 2.9 96.0 1022.5 1.6 11.3 0.0
08:45 3.3 96.0 1022.6 1.6 11.3 0.0
08:50 3.8 96.0 1022.7 1.6 11.3 0.0
08:55 4.3 96.0 1022.8 1.6 11.3 0.0
09:00 4.7 97.0 1022.8 0.0 11.3 0.0
09:05 4.9 96.0 1023.1 0.0 11.3 0.0
09:10 5.3 96.0 1023.0 0.0 11.3 0.0
09:15 5.7 96.0 1023.1 0.0 11.3 0.0
09:20 5.8 96.0 1023.2 0.0 11.3 0.0
09:25 5.8 96.0 1023.2 0.0 11.3 0.0
09:30 5.9 96.0 1023.2 0.0 11.3 0.0
09:35 6.3 96.0 1023.2 0.0 11.3 0.0
09:40 6.9 96.0 1023.2 0.0 11.3 0.0
09:45 7.6 96.0 1023.2 0.0 11.3 0.0
09:50 8.2 97.0 1023.1 0.0 11.3 0.0
09:55 8.2 97.0 1023.3 0.0 11.3 0.0
10:00 8.0 96.0 1023.2 1.6 11.3 0.0
10:05 7.9 95.0 1023.2 1.6 11.3 0.0
10:10 8.2 95.0 1023.2 1.6 11.3 0.0
10:15 8.7 95.0 1023.3 0.0 11.3 0.0
10:20 9.1 94.0 1023.2 0.0 11.3 0.0
10:25 9.6 93.0 1023.3 0.0 11.3 0.0
10:30 9.9 92.0 1023.3 0.0 11.3 0.0
10:35 10.1 91.0 1023.3 0.0 11.3 0.0
10:40 10.2 90.0 1023.2 0.0 11.3 0.0
10:45 9.9 89.0 1023.2 0.0 11.3 0.0
10:50 9.9 90.0 1023.3 0.0 11.3 0.0
10:55 10.1 89.0 1023.2 1.6 11.3 0.0
11:00 10.3 89.0 1023.2 0.0 11.3 0.0
11:05 10.6 88.0 1023.1 0.0 11.3 0.0
11:10 10.8 87.0 1023.0 0.0 11.3 0.0
11:15 10.9 88.0 1022.9 1.6 11.3 0.0
11:20 10.9 87.0 1022.9 1.6 11.3 0.0
11:25 11.0 87.0 1022.7 1.6 11.3 0.0
11:30 11.2 88.0 1022.7 1.6 11.3 0.0
11:35 11.4 87.0 1022.5 0.0 11.3 0.0
11:40 11.9 87.0 1022.6 0.0 11.3 0.0
11:45 12.2 86.0 1022.6 1.6 11.3 0.0
11:50 12.2 86.0 1022.6 1.6 11.3 0.0
11:55 12.3 85.0 1022.2 1.6 11.3 0.0
12:00 12.4 85.0 1022.2 1.6 11.3 0.0
12:05 12.5 85.0 1022.1 0.0 11.3 0.0
12:10 12.8 85.0 1022.0 0.0 11.3 0.0
12:15 13.3 84.0 1022.1 1.6 11.3 0.0
12:20 13.8 82.0 1021.9 4.8 19.3 0.0
12:25 14.3 81.0 1021.8 8.0 19.3 0.0
12:30 14.5 80.0 1021.8 8.0 19.3 0.0
12:35 14.4 79.0 1021.7 9.7 19.3 0.0
12:40 14.2 79.0 1021.7 11.3 19.3 0.0
12:45 14.2 80.0 1021.8 9.7 19.3 0.0
12:50 14.3 80.0 1021.7 8.0 19.3 0.0
12:55 14.3 80.0 1021.6 8.0 19.3 0.0
13:00 14.5 81.0 1021.7 8.0 19.3 0.0
13:05 14.5 80.0 1021.7 9.7 19.3 0.0
13:10 14.4 79.0 1021.6 9.7 19.3 0.0
13:15 14.2 78.0 1021.5 9.7 19.3 0.0
13:20 14.1 80.0 1021.4 8.0 19.3 0.0
13:25 13.9 79.0 1021.4 8.0 19.3 0.0
13:30 13.9 80.0 1021.4 9.7 19.3 0.0
13:35 13.9 80.0 1021.3 9.7 19.3 0.0
13:40 13.9 80.0 1021.3 8.0 19.3 0.0
13:45 13.8 82.0 1021.1 9.7 19.3 0.0
13:50 13.6 81.0 1021.1 11.3 19.3 0.0
13:55 13.5 82.0 1021.1 11.3 19.3 0.0
14:00 13.6 83.0 1020.9 9.7 19.3 0.0
14:05 13.7 83.0 1021.0 8.0 19.3 0.0
14:10 13.6 83.0 1020.9 9.7 19.3 0.0
14:15 13.6 83.0 1020.9 9.7 19.3 0.0
14:20 13.5 84.0 1021.0 9.7 19.3 0.0
14:25 13.3 83.0 1021.0 9.7 19.3 0.0
14:30 13.3 84.0 1021.0 9.7 19.3 0.0
14:35 13.2 85.0 1021.0 11.3 19.3 0.0
14:40 13.1 85.0 1021.2 11.3 19.3 0.0
14:45 13.0 86.0 1021.2 9.7 19.3 0.0
14:50 13.1 86.0 1021.2 9.7 19.3 0.0
14:55 13.1 86.0 1021.2 9.7 19.3 0.0
15:00 13.3 85.0 1021.2 8.0 19.3 0.0
15:05 13.3 85.0 1021.2 6.4 19.3 0.0
15:10 13.4 85.0 1021.2 6.4 19.3 0.0
15:15 13.4 85.0 1021.2 6.4 19.3 0.0
15:20 13.4 85.0 1021.4 6.4 19.3 0.0
15:25 13.3 85.0 1021.3 8.0 19.3 0.0
15:30 13.2 85.0 1021.4 8.0 19.3 0.0
15:35 13.1 86.0 1021.3 6.4 19.3 0.0
15:40 12.9 86.0 1021.4 8.0 19.3 0.0
15:45 12.8 87.0 1021.4 9.7 19.3 0.0
15:50 12.7 86.0 1021.4 8.0 19.3 0.0
15:55 12.7 87.0 1021.4 8.0 19.3 0.0
16:00 12.7 87.0 1021.5 6.4 19.3 0.0
16:05 12.7 87.0 1021.4 6.4 19.3 0.0
16:10 12.7 87.0 1021.3 3.2 19.3 0.0
16:15 12.6 87.0 1021.3 3.2 19.3 0.0
16:20 12.6 87.0 1021.3 3.2 19.3 0.0
16:25 12.5 87.0 1021.6 1.6 19.3 0.0
16:30 12.4 87.0 1021.6 1.6 19.3 0.0
16:35 12.4 87.0 1021.7 3.2 19.3 0.0
16:40 12.3 87.0 1021.7 4.8 19.3 0.0
16:45 12.2 87.0 1021.8 3.2 19.3 0.0
16:50 12.1 87.0 1021.8 1.6 19.3 0.0
16:55 11.9 88.0 1021.8 0.0 19.3 0.0
17:00 11.7 87.0 1021.9 0.0 19.3 0.0
17:05 11.5 87.0 1021.9 0.0 19.3 0.0
17:10 11.2 88.0 1021.9 0.0 19.3 0.0
17:15 10.8 88.0 1021.9 0.0 19.3 0.0
17:20 10.5 88.0 1022.0 0.0 19.3 0.0
17:25 10.2 88.0 1022.1 0.0 19.3 0.0
17:30 9.8 89.0 1022.1 0.0 19.3 0.0
17:35 9.6 89.0 1022.1 0.0 19.3 0.0
17:40 9.3 89.0 1022.2 3.2 19.3 0.0
17:45 9.1 89.0 1022.2 4.8 19.3 0.0
17:50 8.9 90.0 1022.3 3.2 19.3 0.0
17:55 8.8 90.0 1022.3 1.6 19.3 0.0
18:00 8.6 90.0 1022.4 1.6 19.3 0.0
18:05 8.3 91.0 1022.4 1.6 19.3 0.0
18:10 8.2 91.0 1022.3 1.6 19.3 0.0
18:15 8.1 91.0 1022.3 0.0 19.3 0.0
18:20 7.9 91.0 1022.3 0.0 19.3 0.0
18:25 7.8 91.0 1022.3 0.0 19.3 0.0
18:30 7.6 91.0 1022.4 0.0 19.3 0.0
18:35 7.4 91.0 1022.3 1.6 19.3 0.0
18:40 7.2 91.0 1022.4 3.2 19.3 0.0
18:45 7.1 91.0 1022.4 3.2 19.3 0.0
18:50 6.9 92.0 1022.5 1.6 19.3 0.0
18:55 6.8 92.0 1022.5 1.6 19.3 0.0
19:00 6.8 92.0 1022.6 3.2 19.3 0.0
19:05 6.7 92.0 1022.7 1.6 19.3 0.0
19:10 6.6 92.0 1022.7 1.6 19.3 0.0
19:15 6.6 92.0 1022.7 1.6 19.3 0.0
19:20 6.5 92.0 1022.8 1.6 19.3 0.0
19:25 6.5 93.0 1022.8 1.6 19.3 0.0
19:30 6.4 93.0 1022.8 1.6 19.3 0.0
19:35 6.2 92.0 1022.7 1.6 19.3 0.0
19:40 5.8 92.0 1022.7 1.6 19.3 0.0
19:45 5.6 92.0 1022.7 0.0 19.3 0.0
Màxima 14.6 97.0 1023.3 11.3 19.3 0.0
Mínima -0.2 78.0 1020.1
Total 0.0